Location: Neuvy Saint Sepulchre
(46.5953°N, 1.8122°E)
Time: 07:24:19
(UTC+02:00)

ISS - Pass Details

Date: 13 July 2021
Orbit: 419 x 421 km, 51.6° (Epoch: 03 August)

Event Time Altitude Azimuth Distance (km) Brightness Sun altitude
Rises 01:14:30 0° 259° (WSW) 2,365 0.1 -20.9°
Reaches altitude 10° 01:16:38 10° 264° (W) 1,503 -0.9 -20.9°
Maximum altitude 01:19:55 51° 341° (NNW) 538 -2.9 -21.0°
Drops below altitude 10° 01:23:14 10° 59° (ENE) 1,506 -0.7 -21.1°
Sets 01:25:23 0° 65° (ENE) 2,371 0.3 -21.2°
